SCP
0 0 0 0 0 0 0 0 0 0 0 0 0 0 0 0 0 0 0 0 0 0 0 0 0 0 0 0 0 0 0 0 0 0 0 0 0 0
0 0 0 0 0 0 0 0 0 0 0 0 0 0 0 0 0 0 0 0 0 0 0 -0 0 0 -0 -0 -0 -0 0 0 0 0 0 0 0 0
0 0 0 0 0 0 0 0 0 0 0 0 0 0 0 0 0 0 0 0 0 -0 -0 -0 -0 -0 -0 -0 -0 -0 -0 -0 -0 -0 0 0 0 0
-0 -0 0 0 0 0 0 -0 0 0 0 0 0 0 0 0 0 0 0 0 0 -0 -0 -0 -0 -0 -0 -0 -0 -0 -0 -0 -0 -0 0 0 0 0
-0 -0 -0 -0 0 0 -0 0 0 0 0 0 0 0 0 0 0 0 0 0 0 -0 -0 -0 -0 -0 -0 -0 -0 -0 -0 -0 -0 -0 -0 0 0 0
0 0 0 0 -0 -0 0 0 0 0 0 0 0 0 0 0 0 0 0 0 0 0 -0 -0 -0 -0 -0 -0 -0 -0 -0 -0 -0 -0 -0 -0 -0 0
0 0 0 0 0 0 0 0 0 0 0 0 0 0 0 0 0 0 0 0 0 0 0 0 0 0 0 -0 -0 -0 -0 -0 -0 -0 -0 -0 0 -0
0 0 0 0 0 0 0 0 0 0 0 0 0 0 0 0 0 0 0 0 0 0 0 0 0 0 -0 -0 -0 -0 -0 -0 -0 -0 -0 -0 -0 0
0 0 0 0 0 0 -0 0 0 0 0 0 0 0 0 0 0 0 0 0 0 0 0 0 0 0 0 -0 -0 -0 -0 -0 -0 0 0 -0 -0 0
0 0 0 0 0 0 0 0 0 0 0 0 0 0 0 0 0 0 -0 0 0 0 0 0 0 0 0 -0 0 0 0 0 0 0 0 0 -0 -0
0 0 0 0 0 0 0 0 0 0 0 0 0 0 0 0 0 0 0 -0 0 0 0 0 0 0 0 0 -0 0 0 0 0 0 -0 -0 0 -0
0 0 -0 -0 0 0 0 0 0 0 0 0 0 0 0 0 0 0 0 -0 0 0 0 0 -0 0 0 0 0 0 0 0 0 0 -0 -0 0 -0
0 0 0 0 -0 -0 -0 -0 -0 0 0 0 0 0 0 0 0 0 0 -0 -0 -0 -0 -0 -0 0 0 0 0 0 -0 -0 -0 -0 -0 -0 -0 -0
0 0 0 -0 -0 -0 -0 -0 0 0 0 0 0 0 0 0 0 -0 -0 0 -0 -0 -0 0 -0 -0 0 -0 0 -0 -0 -0 -0 -0 0 0 -0 -0
0 0 -0 -0 -0 -0 0 0 0 0 0 -0 0 0 0 0 0 0 0 0 0 0 0 0 -0 -0 -0 0 -0 -0 -0 -0 0 0 0 0 0 0
0 0 0 0 0 0 0 0 0 0 0 0 0 0 0 0 0 0 0 0 0 0 0 0 0 0 -0 -0 -0 -0 0 0 0 0 0 0 0 0
0 0 -0 0 0 0 0 0 0 0 0 0 0 0 0 0 0 0 0 0 0 0 0 -0 0 0 0 0 0 0 0 0 0 0 0 0 0 0
0 0 0 0 0 0 0 0 0 0 0 0 0 0 0 0 0 0 0 0 0 0 -0 0 0 0 0 0 0 0 0 0 0 0 0 0 0 0
0 0 0 0 0 0 0 0 0 0 0 -0 0 -0 -0 -0 0 0 0 0 0 0 0 0 0 0 0 0 0 0 0 0 -0 0 0 0 0 0
0 0 0 0 0 0 0 0 0 -0 -0 -0 -0 0 0 0 0 0 0 0 0 0 0 0 0 0 0 0 0 0 0 0 0 0 0 0 0 0
0 0 0 0 0 0 0 0 0 0 0 0 0 0 0 0 0 0 -0 0 0 0 0 0 0 0 0 0 0 0 0 0 0 0 0 0 0 0
0 0 0 0 0 0 -0 0 0 0 0 0 0 0 0 0 0 0 0 0 0 0 0 0 0 0 0 0 0 0 0 0 0 0 0 0 0 0
0 -0 -0 -0 -0 -0 -0 0 0 0 0 0 0 0 0 0 0 0 0 0 0 0 0 0 0 0 0 0 0 0 0 0 0 0 0 0 0 0
Wind_Speed_500mb
24 22 21 20 19 16 17 17 22 9 5 3 7 10 2 4 3 3 4 1 3 7 11 16 19 8 6 26 38 34 28 27 33 37 40 45 52 55
17 18 15 13 12 15 18 17 16 17 8 4 8 11 9 7 4 4 14 6 8 6 11 18 17 19 21 20 31 35 32 36 36 44 52 56 58 43
20 21 16 12 13 10 7 14 15 15 16 8 13 23 20 12 13 14 26 15 30 16 22 26 47 57 57 47 52 52 65 65 70 67 64 70 71 68
23 20 18 17 17 16 10 4 13 18 19 17 22 33 38 30 47 58 55 52 48 42 39 35 37 36 39 33 34 42 56 62 59 50 52 51 50 46
28 28 24 21 14 12 16 12 7 19 20 24 35 41 43 42 49 55 57 55 53 45 39 43 44 45 45 43 40 35 33 28 41 44 36 44 38 36
21 20 23 15 14 13 8 16 22 28 31 35 46 44 37 43 38 42 54 49 57 50 46 44 47 50 50 51 50 48 44 42 38 38 39 35 36 34
25 23 13 15 20 20 19 23 25 37 31 51 43 37 41 43 31 49 55 54 51 45 44 44 43 48 50 47 44 41 41 43 40 35 33 32 34 33
27 28 27 22 20 21 21 21 23 25 41 44 45 40 46 58 56 54 57 53 50 29 45 51 44 50 47 45 44 42 37 36 35 36 36 34 36 38
26 30 27 30 36 33 29 22 26 31 33 31 38 41 51 49 45 39 37 34 35 35 40 52 40 45 42 41 35 32 35 31 31 34 38 39 38 37
30 33 35 33 31 33 37 35 33 40 31 34 50 64 57 49 43 44 37 39 40 38 37 56 40 46 41 38 31 30 30 34 34 38 39 39 38 35
38 34 35 32 28 26 27 31 34 41 51 68 60 55 50 47 49 44 34 37 41 36 35 52 42 45 38 35 31 29 31 35 36 39 41 40 39 41
42 42 38 35 32 33 40 45 57 73 68 57 50 40 36 38 32 30 23 35 43 44 37 49 46 49 45 36 34 34 37 41 40 40 39 38 41 41
55 50 43 40 44 49 46 56 73 69 56 46 42 37 29 30 35 26 22 39 47 50 39 28 26 21 41 52 43 38 38 42 40 39 39 44 42 34
56 58 57 58 62 63 66 65 56 49 46 39 35 40 40 33 44 35 37 34 32 36 34 30 44 43 50 49 46 42 39 38 38 38 37 31 27 23
42 47 57 62 58 55 52 46 41 40 35 31 38 38 39 43 49 41 32 26 30 25 25 23 30 31 32 46 59 49 48 42 35 31 31 29 24 21
34 40 42 39 35 38 39 34 29 28 29 30 38 41 43 36 37 36 36 40 42 36 30 25 22 24 31 34 35 34 27 28 24 21 24 20 16 6
28 31 31 29 20 23 27 22 22 23 21 30 27 30 38 40 39 29 27 36 35 34 32 31 23 20 22 24 23 23 22 19 21 19 15 10 8 6
22 22 23 16 15 18 21 20 16 20 24 30 30 30 31 28 26 32 39 34 30 24 30 27 22 17 16 20 16 20 17 11 10 15 7 6 11 16
10 13 13 11 11 16 17 17 18 24 28 31 27 25 25 32 30 25 25 23 23 28 24 21 19 19 19 26 22 14 10 8 24 16 9 9 21 23
9 6 8 11 15 16 22 16 23 28 27 23 18 25 27 25 26 25 22 18 17 18 15 12 7 8 16 19 24 13 13 22 23 20 19 10 13 13
4 10 11 12 13 16 19 20 20 22 25 22 19 17 14 14 2 16 29 19 15 19 17 13 4 4 13 8 21 18 19 19 20 18 15 17 19 19
12 5 12 16 17 18 20 24 33 29 24 17 8 6 9 10 16 23 20 17 18 10 8 14 13 13 13 14 18 15 13 10 8 9 17 19 25 20
10 10 12 15 16 23 30 26 25 28 21 14 17 5 18 20 18 18 17 17 14 8 26 25 18 11 9 14 17 19 16 9 11 15 15 15 14 16
Wind_Direction_500mb
302 303 298 299 278 269 263 261 255 254 193 51 48 18 73 306 303 38 124 255 360 27 16 15 2 23 226 202 190 184 196 215 207 198 199 197 173 172
311 315 309 315 298 282 259 253 237 216 201 98 94 153 107 97 46 115 142 163 187 199 29 31 27 88 101 148 178 183 160 164 158 171 170 173 175 166
325 313 293 285 290 295 272 234 214 205 185 130 157 172 153 197 153 169 152 150 139 123 117 116 97 109 120 123 134 142 153 161 159 147 152 145 148 146
322 308 294 277 276 270 253 195 230 197 191 181 155 149 136 148 139 127 125 117 111 115 127 121 111 106 103 112 115 118 109 112 115 111 120 127 127 128
311 298 283 261 253 226 209 178 194 168 184 176 155 140 134 137 128 125 125 120 115 111 103 106 107 105 107 109 116 132 142 141 151 153 152 135 129 133
347 335 323 218 204 191 196 159 161 155 155 159 147 131 139 125 121 115 111 115 111 112 109 110 110 106 105 105 109 117 122 125 127 131 137 128 128 135
13 3 41 141 152 132 144 160 154 157 155 152 136 148 142 137 139 127 116 106 103 109 113 111 110 108 106 108 112 117 120 120 122 127 129 127 129 131
36 55 89 103 137 149 138 134 149 151 149 149 144 141 134 125 121 116 112 105 102 93 117 108 110 106 103 108 109 111 112 118 124 127 127 126 126 124
68 78 84 99 120 117 123 136 139 109 143 136 131 138 125 120 112 110 116 107 100 113 122 108 110 108 106 105 105 109 120 124 129 125 124 123 123 121
77 80 87 102 105 113 118 133 133 140 117 138 127 119 114 112 122 119 117 103 98 116 121 106 105 99 100 105 107 107 124 125 128 126 123 122 118 113
76 85 97 100 102 112 110 117 120 124 121 118 114 114 120 124 123 127 126 115 108 110 117 111 108 102 98 99 103 113 126 126 126 125 124 122 115 112
83 81 85 94 101 111 117 117 119 123 120 114 104 107 124 133 129 130 132 113 112 117 123 114 115 111 100 97 98 105 114 116 116 117 118 118 119 116
79 83 87 93 100 106 104 116 120 121 117 104 102 105 113 136 140 134 112 108 111 115 115 110 110 106 117 109 104 108 109 114 115 114 113 112 110 102
81 84 93 106 106 107 110 113 119 124 119 97 93 103 95 110 136 133 107 92 84 98 109 84 118 125 119 116 114 112 114 110 108 109 113 112 106 105
90 97 106 108 108 111 115 118 121 129 124 105 108 109 101 106 131 124 113 94 104 111 112 120 97 107 112 116 118 112 115 112 110 105 106 101 91 85
103 112 119 119 109 108 112 113 122 136 134 120 119 110 101 115 134 139 125 119 116 115 119 125 107 97 112 113 112 115 120 126 127 132 126 121 107 77
108 123 126 127 117 110 118 118 120 127 129 133 132 129 122 114 115 113 144 135 125 120 122 133 125 101 106 117 131 130 118 122 120 132 139 135 139 197
127 135 141 144 117 123 120 135 124 131 133 132 124 125 134 136 134 120 112 124 129 123 124 137 138 134 151 167 144 148 154 162 161 168 148 209 224 237
129 162 163 166 150 146 144 147 133 138 140 148 141 137 143 146 150 154 140 125 117 116 120 131 155 170 152 157 162 174 183 192 162 154 166 269 280 255
127 157 165 178 161 149 151 151 144 141 141 146 140 136 151 148 146 156 166 143 131 156 129 122 94 218 199 199 182 185 180 170 174 172 182 228 259 266
125 156 170 152 152 158 157 140 140 151 153 141 135 141 144 131 163 198 179 163 166 162 156 162 144 110 134 142 156 178 185 188 196 211 241 234 264 279
188 211 184 180 188 170 162 164 156 156 147 141 119 128 182 170 156 158 154 175 177 175 164 171 170 158 151 139 143 124 118 138 156 188 228 234 239 256
144 136 120 162 170 162 164 147 139 146 145 132 129 120 140 163 160 144 165 180 181 125 141 151 167 191 249 275 269 257 279 308 303 285 275 260 251 245
Wind_Speed_850mb
24 22 21 20 19 16 17 17 22 9 5 3 7 10 2 4 3 3 4 1 3 7 11 16 19 8 6 26 38 34 28 27 33 37 40 45 52 55
17 18 15 13 12 15 18 17 16 17 8 4 8 11 9 7 4 4 14 6 8 6 11 18 17 19 21 20 31 35 32 36 36 44 52 56 58 43
20 21 16 12 13 10 7 14 15 15 16 8 13 23 20 12 13 14 26 15 30 16 22 26 47 57 57 47 52 52 65 65 70 67 64 70 71 68
23 20 18 17 17 16 10 4 13 18 19 17 22 33 38 30 47 58 55 52 48 42 39 35 37 36 39 33 34 42 56 62 59 50 52 51 50 46
28 28 24 21 14 12 16 12 7 19 20 24 35 41 43 42 49 55 57 55 53 45 39 43 44 45 45 43 40 35 33 28 41 44 36 44 38 36
21 20 23 15 14 13 8 16 22 28 31 35 46 44 37 43 38 42 54 49 57 50 46 44 47 50 50 51 50 48 44 42 38 38 39 35 36 34
25 23 13 15 20 20 19 23 25 37 31 51 43 37 41 43 31 49 55 54 51 45 44 44 43 48 50 47 44 41 41 43 40 35 33 32 34 33
27 28 27 22 20 21 21 21 23 25 41 44 45 40 46 58 56 54 57 53 50 29 45 51 44 50 47 45 44 42 37 36 35 36 36 34 36 38
26 30 27 30 36 33 29 22 26 31 33 31 38 41 51 49 45 39 37 34 35 35 40 52 40 45 42 41 35 32 35 31 31 34 38 39 38 37
30 33 35 33 31 33 37 35 33 40 31 34 50 64 57 49 43 44 37 39 40 38 37 56 40 46 41 38 31 30 30 34 34 38 39 39 38 35
38 34 35 32 28 26 27 31 34 41 51 68 60 55 50 47 49 44 34 37 41 36 35 52 42 45 38 35 31 29 31 35 36 39 41 40 39 41
42 42 38 35 32 33 40 45 57 73 68 57 50 40 36 38 32 30 23 35 43 44 37 49 46 49 45 36 34 34 37 41 40 40 39 38 41 41
55 50 43 40 44 49 46 56 73 69 56 46 42 37 29 30 35 26 22 39 47 50 39 28 26 21 41 52 43 38 38 42 40 39 39 44 42 34
56 58 57 58 62 63 66 65 56 49 46 39 35 40 40 33 44 35 37 34 32 36 34 30 44 43 50 49 46 42 39 38 38 38 37 31 27 23
42 47 57 62 58 55 52 46 41 40 35 31 38 38 39 43 49 41 32 26 30 25 25 23 30 31 32 46 59 49 48 42 35 31 31 29 24 21
34 40 42 39 35 38 39 34 29 28 29 30 38 41 43 36 37 36 36 40 42 36 30 25 22 24 31 34 35 34 27 28 24 21 24 20 16 6
28 31 31 29 20 23 27 22 22 23 21 30 27 30 38 40 39 29 27 36 35 34 32 31 23 20 22 24 23 23 22 19 21 19 15 10 8 6
22 22 23 16 15 18 21 20 16 20 24 30 30 30 31 28 26 32 39 34 30 24 30 27 22 17 16 20 16 20 17 11 10 15 7 6 11 16
10 13 13 11 11 16 17 17 18 24 28 31 27 25 25 32 30 25 25 23 23 28 24 21 19 19 19 26 22 14 10 8 24 16 9 9 21 23
9 6 8 11 15 16 22 16 23 28 27 23 18 25 27 25 26 25 22 18 17 18 15 12 7 8 16 19 24 13 13 22 23 20 19 10 13 13
4 10 11 12 13 16 19 20 20 22 25 22 19 17 14 14 2 16 29 19 15 19 17 13 4 4 13 8 21 18 19 19 20 18 15 17 19 19
12 5 12 16 17 18 20 24 33 29 24 17 8 6 9 10 16 23 20 17 18 10 8 14 13 13 13 14 18 15 13 10 8 9 17 19 25 20
10 10 12 15 16 23 30 26 25 28 21 14 17 5 18 20 18 18 17 17 14 8 26 25 18 11 9 14 17 19 16 9 11 15 15 15 14 16
Wind_Direction_850mb
302 303 298 299 278 269 263 261 255 254 193 51 48 18 73 306 303 38 124 255 360 27 16 15 2 23 226 202 190 184 196 215 207 198 199 197 173 172
311 315 309 315 298 282 259 253 237 216 201 98 94 153 107 97 46 115 142 163 187 199 29 31 27 88 101 148 178 183 160 164 158 171 170 173 175 166
325 313 293 285 290 295 272 234 214 205 185 130 157 172 153 197 153 169 152 150 139 123 117 116 97 109 120 123 134 142 153 161 159 147 152 145 148 146
322 308 294 277 276 270 253 195 230 197 191 181 155 149 136 148 139 127 125 117 111 115 127 121 111 106 103 112 115 118 109 112 115 111 120 127 127 128
311 298 283 261 253 226 209 178 194 168 184 176 155 140 134 137 128 125 125 120 115 111 103 106 107 105 107 109 116 132 142 141 151 153 152 135 129 133
347 335 323 218 204 191 196 159 161 155 155 159 147 131 139 125 121 115 111 115 111 112 109 110 110 106 105 105 109 117 122 125 127 131 137 128 128 135
13 3 41 141 152 132 144 160 154 157 155 152 136 148 142 137 139 127 116 106 103 109 113 111 110 108 106 108 112 117 120 120 122 127 129 127 129 131
36 55 89 103 137 149 138 134 149 151 149 149 144 141 134 125 121 116 112 105 102 93 117 108 110 106 103 108 109 111 112 118 124 127 127 126 126 124
68 78 84 99 120 117 123 136 139 109 143 136 131 138 125 120 112 110 116 107 100 113 122 108 110 108 106 105 105 109 120 124 129 125 124 123 123 121
77 80 87 102 105 113 118 133 133 140 117 138 127 119 114 112 122 119 117 103 98 116 121 106 105 99 100 105 107 107 124 125 128 126 123 122 118 113
76 85 97 100 102 112 110 117 120 124 121 118 114 114 120 124 123 127 126 115 108 110 117 111 108 102 98 99 103 113 126 126 126 125 124 122 115 112
83 81 85 94 101 111 117 117 119 123 120 114 104 107 124 133 129 130 132 113 112 117 123 114 115 111 100 97 98 105 114 116 116 117 118 118 119 116
79 83 87 93 100 106 104 116 120 121 117 104 102 105 113 136 140 134 112 108 111 115 115 110 110 106 117 109 104 108 109 114 115 114 113 112 110 102
81 84 93 106 106 107 110 113 119 124 119 97 93 103 95 110 136 133 107 92 84 98 109 84 118 125 119 116 114 112 114 110 108 109 113 112 106 105
90 97 106 108 108 111 115 118 121 129 124 105 108 109 101 106 131 124 113 94 104 111 112 120 97 107 112 116 118 112 115 112 110 105 106 101 91 85
103 112 119 119 109 108 112 113 122 136 134 120 119 110 101 115 134 139 125 119 116 115 119 125 107 97 112 113 112 115 120 126 127 132 126 121 107 77
108 123 126 127 117 110 118 118 120 127 129 133 132 129 122 114 115 113 144 135 125 120 122 133 125 101 106 117 131 130 118 122 120 132 139 135 139 197
127 135 141 144 117 123 120 135 124 131 133 132 124 125 134 136 134 120 112 124 129 123 124 137 138 134 151 167 144 148 154 162 161 168 148 209 224 237
129 162 163 166 150 146 144 147 133 138 140 148 141 137 143 146 150 154 140 125 117 116 120 131 155 170 152 157 162 174 183 192 162 154 166 269 280 255
127 157 165 178 161 149 151 151 144 141 141 146 140 136 151 148 146 156 166 143 131 156 129 122 94 218 199 199 182 185 180 170 174 172 182 228 259 266
125 156 170 152 152 158 157 140 140 151 153 141 135 141 144 131 163 198 179 163 166 162 156 162 144 110 134 142 156 178 185 188 196 211 241 234 264 279
188 211 184 180 188 170 162 164 156 156 147 141 119 128 182 170 156 158 154 175 177 175 164 171 170 158 151 139 143 124 118 138 156 188 228 234 239 256
144 136 120 162 170 162 164 147 139 146 145 132 129 120 140 163 160 144 165 180 181 125 141 151 167 191 249 275 269 257 279 308 303 285 275 260 251 245